Location: Unspecified
(48.2082°N, 0.0000°E)
Time: 03:50:44
(UTC+00:00)

Tiros 1 despin weight - Pass Details

Date: 20 June 2019
Orbit: 594 x 642 km, 48.2° (Epoch: 17 July)

Event Time Altitude Azimuth Distance (km) Brightness Sun altitude
Rises 04:14:18 0° 281° (WNW) 2,832 ? 1.2°
Reaches altitude 10° 04:16:36 10° 279° (W) 1,928 ? 1.5°
Maximum altitude 04:20:59 67° 197° (SSW) 645 ? 2.1°
Drops below altitude 10° 04:25:22 10° 115° (ESE) 1,932 ? 2.7°
Sets 04:27:40 0° 113° (ESE) 2,837 ? 3.0°
